San Antonio del Tachira, Colombia

2:07 AM -05 on June 28, 2017 (GMT -0500)
San Antonio Del Tachira

Weather History for SVSA - February, 2014

Change the Weather History Date:

Sunday, February 16, 2014

  Actual Average Record
Temperature  
Mean Temperature 84 °F -  
Max Temperature 98 °F 87 °F 98 °F (2014)
Min Temperature 71 °F 70 °F 66 °F (2001)
Cooling Degree Days 20    
Growing Degree Days 34 (Base 50)    
Moisture  
Dew Point 67 °F    
Average Humidity 57    
Maximum Humidity 74    
Minimum Humidity 24    
Precipitation  
Precipitation 0.00 in 0.06 in - ()
Sea Level Pressure  
Sea Level Pressure 29.89 in    
Wind  
Wind Speed - ()    
Max Wind Speed -    
Max Gust Speed -    
Visibility 5.3 miles    
Events Fog    
Averages and records for this station are not official NWS values.
T = Trace of Precipitation, MM = Missing Value Source: Averaged Metar Reports

Daily Weather History Graph

Daily Weather History Graph

Search for Another Location

Airport or City:

Trip Planner

Search our weather history database for the weather conditions in past years. The results will help you decide how hot, cold, wet, or windy it might be!

Date:

Astronomy

Feb. 16, 2014 Rise Set
Actual Time 6:37 AM -0430 6:30 PM -0430
Civil Twilight 6:15 AM -0430 6:51 PM -0430
Nautical Twilight 5:51 AM -0430 7:16 PM -0430
Astronomical Twilight 5:26 AM -0430 7:41 PM -0430
Moon 7:52 PM -0430 (2/16) 7:32 AM -0430 (2/16)
Length of Visible Light 12h 35m
Length of Day
11h 53m
Full, 97% of the Moon is Illuminated
Feb 16
Full
Feb 22
Last Quarter
Mar 1
New
Mar 8
First Quarter
Mar 16
Full

Hourly Weather History & Observations

Time (-0430) Temp. Heat Index Dew Point Humidity Pressure Visibility Wind Dir Wind Speed Gust Speed Precip Events Conditions
1:30 AM 78.8 °F - 66.2 °F 65% 29.92 in - North - - N/A   Scattered Clouds
4:30 AM 77.0 °F - 55.4 °F 47% 29.92 in - North - - N/A   Partly Cloudy
5:30 AM 71.6 °F - 60.8 °F 69% 29.89 in - North - - N/A Fog Partly Cloudy
6:30 AM 77.0 °F - 64.4 °F 65% 29.95 in - North - - N/A Fog Fog
7:30 AM 72 °F - 63 °F 66% 29.83 in 4 mi Calm Calm - -   Partly Cloudy
7:30 AM 71.6 °F - 62.6 °F 73% 29.98 in - North - - N/A Fog Fog
8:30 AM 75.2 °F - 64.4 °F 69% 30.01 in - North - - N/A   Haze
9:30 AM 78.8 °F - 66.2 °F 65% 30.01 in - North - - N/A Fog Fog
10:30 AM 84.2 °F 88.4 °F 69.8 °F 62% 29.98 in - North - - N/A Fog Fog
11:30 AM 89.6 °F 93.4 °F 68.0 °F 49% 29.95 in - North - - N/A Fog Fog
12:30 PM 95.0 °F 99.5 °F 68.0 °F 41% 29.92 in - North - - N/A   Partly Cloudy
1:30 PM 98 °F - 64 °F 24% 29.72 in 6 mi Calm Calm - -   Scattered Clouds
1:30 PM 96.8 °F 100.7 °F 66.2 °F 37% 29.86 in - North - - N/A   Partly Cloudy
2:30 PM 98.6 °F 101.0 °F 64.4 °F 32% 29.86 in - North - - N/A   Partly Cloudy
3:30 PM 95.0 °F 103.2 °F 71.6 °F 47% 29.83 in - North - - N/A   Partly Cloudy
4:30 PM 91.4 °F 98.4 °F 71.6 °F 52% 29.83 in - North - - N/A   Scattered Clouds
5:30 PM 87.8 °F 93.8 °F 71.6 °F 58% 29.83 in - North - - N/A   Scattered Clouds
6:30 PM 87.8 °F 93.8 °F 71.6 °F 58% 29.83 in - North - - N/A   Scattered Clouds
7:30 PM 85 °F - 72 °F 58% 29.71 in 6 mi Calm Calm - -   Partly Cloudy
7:30 PM 84.2 °F 89.6 °F 71.6 °F 66% 29.86 in - North - - N/A   Scattered Clouds
8:30 PM 82.4 °F 87.2 °F 71.6 °F 70% 29.89 in - North - - N/A   Scattered Clouds
9:30 PM 78.8 °F - 69.8 °F 74% 29.92 in - North - - N/A   Scattered Clouds
10:30 PM 78.8 °F - 66.2 °F 65% 29.95 in - North - - N/A   Scattered Clouds